Dewpoint
21 21 21 25 25 27 27 29 30 34 36 40 45 48 49 49 48 47 47 47 49 49 48 49 50 51 52
22 21 21 23 26 26 27 24 29 29 33 41 43 45 47 48 49 48 47 48 49 48 47 48 48 49 50
23 25 23 23 25 26 26 25 29 33 38 40 42 43 45 48 49 49 47 48 49 48 48 47 46 46 46
23 25 23 24 24 25 25 26 27 29 33 34 37 37 41 44 46 49 47 47 47 47 47 46 45 45 45
24 26 25 24 23 24 25 24 25 28 29 30 32 33 36 44 44 44 46 46 45 46 46 45 45 46 46
27 26 25 24 24 25 26 25 23 25 30 33 32 33 33 34 38 39 41 43 45 44 45 45 45 45 46
28 26 25 26 26 26 27 27 25 25 29 30 29 29 31 31 36 40 41 42 43 44 45 45 45 45 45
27 28 28 28 29 29 28 27 26 27 28 28 26 25 27 29 33 37 41 42 43 43 44 45 44 44 45
31 32 32 32 32 31 31 29 25 26 27 29 28 26 29 30 29 34 41 42 42 43 44 45 43 44 47
26 29 31 32 33 34 33 30 27 26 27 28 27 28 24 25 31 34 37 38 40 43 44 43 44 45 46
27 27 28 28 31 32 34 32 30 28 27 30 31 27 26 25 26 29 33 38 40 40 41 41 40 41 42
28 27 27 28 31 33 33 33 33 32 31 30 32 28 27 26 25 28 31 32 38 39 39 39 40 40 41
27 27 29 31 33 33 33 34 33 34 33 33 33 33 30 27 25 27 27 30 33 37 38 39 38 38 38
27 28 29 30 32 33 33 33 32 33 33 32 33 32 29 29 28 27 28 28 31 34 37 37 38 38 37
28 28 29 29 30 31 32 32 30 30 30 31 32 29 29 30 28 28 30 30 31 31 33 35 36 37 37
28 28 28 28 29 30 29 29 28 28 28 29 30 29 28 29 31 29 27 28 31 31 32 33 34 36 37
29 29 29 29 28 27 28 28 28 26 26 26 29 28 23 21 24 32 30 29 30 31 31 32 33 35 36
Wind_Speed
21 20 21 21 21 24 21 21 21 24 24 24 21 20 20 20 19 16 15 15 16 16 15 14 14 15 16
26 21 20 19 20 23 23 22 21 24 25 21 22 21 21 20 21 19 17 15 16 14 14 14 14 16 17
24 21 19 18 20 20 23 21 20 21 23 23 23 20 18 19 20 22 20 16 15 15 15 15 14 16 18
20 22 20 19 17 19 20 19 19 18 17 17 19 19 18 18 17 19 19 18 15 14 13 14 15 16 18
20 20 20 19 19 18 17 18 19 17 19 18 17 16 14 13 12 13 15 17 16 15 15 15 16 16 17
22 22 25 21 19 18 17 16 19 16 13 14 11 13 15 15 12 12 13 14 15 15 16 17 17 18 18
26 25 25 23 21 21 19 18 19 18 14 15 15 16 15 16 14 14 17 18 17 16 17 18 17 19 20
22 24 23 22 21 21 20 21 18 17 16 18 15 15 15 16 17 15 17 18 18 18 18 17 17 19 21
25 28 30 29 25 17 19 17 18 18 15 14 14 15 13 15 15 12 6 11 15 16 17 16 17 17 16
21 21 22 23 26 24 20 18 15 15 14 13 12 5 7 8 6 10 7 8 8 9 9 8 9 9 11
20 19 18 18 16 16 19 19 15 16 11 9 5 8 8 13 11 10 12 8 5 7 8 8 8 8 10
19 18 17 16 15 15 18 17 15 18 13 12 5 8 10 13 14 9 13 13 9 8 9 9 10 10 12
18 17 15 15 14 10 9 10 14 14 12 12 11 10 11 14 17 15 14 9 14 12 10 7 7 4 7
17 15 14 13 12 10 11 13 14 13 11 11 12 12 13 15 15 21 16 12 10 13 10 7 7 7 8
17 16 14 13 14 11 12 12 14 14 11 9 12 14 12 14 16 19 17 15 14 15 16 14 10 11 9
16 16 15 14 14 12 13 13 14 11 11 11 12 11 11 15 22 20 18 17 16 15 16 15 15 11 9
14 14 13 13 14 13 13 15 13 12 12 12 12 14 15 20 14 21 16 13 14 14 16 15 13 11 8
Wind_Direction
286 286 282 278 281 289 290 284 281 275 276 274 275 275 269 267 261 262 267 268 261 259 265 267 267 265 264
286 286 286 283 277 280 285 282 277 277 273 273 276 272 266 264 258 254 257 258 254 255 272 273 271 272 271
279 285 285 282 277 273 281 280 273 270 267 268 266 268 267 260 255 252 251 250 244 245 250 262 268 273 273
271 279 281 281 277 276 279 283 283 279 281 272 277 276 274 269 268 254 248 247 250 245 242 253 265 271 270
266 272 276 279 274 276 278 281 283 283 276 269 269 265 265 243 261 255 249 247 245 249 253 252 262 265 265
266 267 271 274 276 271 272 277 280 283 285 289 273 273 276 272 274 286 272 257 254 256 255 255 259 264 262
264 263 265 266 270 272 267 266 269 277 281 281 278 277 277 274 267 268 270 270 259 254 254 258 256 260 264
260 264 263 266 262 263 265 271 273 270 265 269 279 278 284 277 272 273 274 268 263 258 255 253 257 264 265
259 265 268 268 266 264 254 253 258 259 252 255 275 285 287 284 280 268 304 300 281 266 258 256 263 261 262
266 253 257 262 258 246 244 240 241 265 264 261 265 297 299 285 291 324 297 313 315 306 277 278 284 279 263
268 266 262 262 262 250 237 234 235 248 251 233 247 267 263 288 290 300 311 295 294 294 297 292 292 283 284
263 260 260 259 256 250 240 227 228 238 245 233 217 242 267 277 282 296 304 300 290 265 263 263 273 279 272
261 258 252 252 258 268 246 254 244 237 236 237 246 237 251 263 274 281 295 297 303 277 271 261 272 282 299
260 259 254 247 248 242 235 222 220 235 222 224 236 243 254 254 258 269 269 267 289 292 278 261 260 254 265
260 258 251 243 240 243 234 238 235 237 234 217 235 242 248 253 254 254 263 264 261 274 278 267 258 247 253
252 254 253 247 242 238 234 230 231 233 253 262 237 232 251 260 234 253 261 270 274 263 264 260 266 251 243
248 250 250 248 247 243 226 229 223 230 235 249 237 233 256 260 261 217 241 253 266 258 253 248 251 259 226